Regional Weather Roundup
Issued by NWS Spokane, WA

Home | Current Version | Previous Version | Text Only | Print | Product List | Glossary On
Versions: 1 2 3 4 5 6 7 8 9 10 11 12 13 14 15 16 17 18 19 20 21 22 23 24 25 26 27 28 29 30 31 32 33 34 35 36 37 38 39 40 41 42 43 44 45 46 47 48 49 50
000
NZUS01 KOTX 201125
RWROTX

Eastern Washington/Northern Idaho Roundup
National Weather Service, Spokane WA
300 AM PST MON FEB 20 2017

Note: "fair" indicated few or no clouds below 12,000 feet with no
significant weather and/or obstructions to visibility.

...Northeast Washington and Northern Idaho Panhandle...

CITY           SKY/WX    TMP DP  RH WIND       PRES   REMARKS
Spokane Intl   CLOUDY    34  31  88 SE7       29.65F WCI  28
Spokane Downto CLOUDY    32  30  92 NE3       29.68F FOG
Coeur d Alene  CLOUDY    30  30 100 E5        29.69F WCI  25
Deer Park      CLOUDY    33  31  92 NE3       29.67F
Sandpoint      CLOUDY    34  32  93 N6        29.70F WCI  29
Bonners Ferry  CLOUDY    34  32  93 CALM      29.69F

...Southeast Washington and southern Idaho Panhandle...

CITY           SKY/WX    TMP DP  RH WIND       PRES   REMARKS
Walla Walla    LGT RAIN  43  40  89 E6        29.65F
Pullman/Moscow CLOUDY    37  32  82 E9        29.69F
Lewiston       LGT RAIN  39  35  86 E3        29.72R
Lowell           N/A     35  32  88 CALM      29.79F
Grangeville    CLOUDY    36  32  87 E3        29.70R

...Columbia Basin...

CITY           SKY/WX    TMP DP  RH WIND       PRES   REMARKS
Ephrata        CLOUDY    34  29  82 N6        29.64S WCI  29
Moses Lake     CLOUDY    31  29  92 CALM      29.65F
Pasco          LGT RAIN  37  34  89 CALM      29.65F
Richland       LGT RAIN  37  36  94 CALM      29.65F
Hermiston      LGT RAIN  42  41  96 SE6       29.63F
Pendleton      LGT RAIN  41  39  93 NE9       29.62F

...East Slopes Cascades...

CITY           SKY/WX    TMP DP  RH WIND       PRES   REMARKS
The Dalles     MIX PCPN  37  37 100 SW6       29.62F FOG
Yakima         CLOUDY    35  32  88 CALM      29.63F
Ellensburg     CLOUDY    33  28  81 E5        29.60F WCI  29
Stampede Pass  FOG       29  32 100 VRB3      29.51F VSB 3/4
Wenatchee      CLOUDY    34  33  96 CALM      29.64F
Omak           CLOUDY    36  31  82 CALM      29.66F
Sunnyside      CLOUDY    36  32  84 E8        29.61F

...Southern British Columbia...

CITY           SKY/WX    TMP DP  RH WIND       PRES   REMARKS
Penticton      MOCLDY    37  34  87 SE10      29.63F
Cranbrook      MOCLDY    34  27  75 S6        29.65S WCI  29
Osoyoos          N/A     37  34  87 S3          N/A
Creston          N/A     34  32  93 E2          N/A

...Western Montana...

CITY           SKY/WX    TMP DP  RH WIND       PRES   REMARKS
Kalispell      CLOUDY    30  28  92 CALM      29.71F
Libby            N/A     28  28 100 CALM      29.71S
Missoula       FOG       30  30 100 E3        29.76S VSB 1/4

...Neighboring Cities...

CITY           SKY/WX    TMP DP  RH WIND       PRES   REMARKS
Seattle        LGT RAIN  41  38  89 CALM      29.59F
Portland       LGT RAIN  41  39  93 SE12      29.55F
Boise          CLOUDY    46  35  65 SE15      29.75F
Great Falls    CLEAR     32  23  69 SW15      29.71S WCI  22
Calgary        CLEAR     25  23  93 SW6       29.54S FOG     WCI  18



USA.gov is the U.S. government's official web portal to all federal, state and local government web resources and services.